This demonstration page uses our WeatherBlox Daily Observations layout. Learn more.

40.92945, -100.16068

Hourly Observations for March 23, 2019

Temp ( °F °C ) Dew Point ( °F °C ) Humidity (%) Winds ( mph kmh ) Pressure ( in mb ) Visibility ( mi km ) Precip ( " mm )
12:15 am 00:15 Cloudy 47 8.5 39 4.1 74 74 ESE 8 13 30.06 1018 10 16.09344 0 0
12:35 am 00:35 Cloudy 47 8.3 39 4.1 75 75 ESE 8 13 30.06 1018 10 16.09344 0 0
12:55 am 00:55 Cloudy 47 8.5 39 3.9 73 73 ESE 9 15 30.06 1018 10 16.09344 0 0
1:15 am 01:15 Cloudy 47 8.5 38 3.6 72 72 ESE 14 22 30.06 1018 10 16.09344 0 0
1:35 am 01:35 Cloudy 49 9.6 38 3.5 66 66 ESE 13 20 30.03 1017 10 16.09344 0 0
1:55 am 01:55 Mostly Cloudy 50 9.8 37 2.5 61 61 ESE 13 20 30.03 1017 10 16.09344 0 0
2:15 am 02:15 Mostly Cloudy 48 8.7 37 3 68 68 E 13 20 30.03 1017 10 16.09344 0 0
2:35 am 02:35 Cloudy 46 7.9 37 3 71 71 E 12 19 30.03 1017 10 16.09344 0 0
2:55 am 02:55 Cloudy 46 7.8 37 2.7 70 70 E 14 22 30 1016 10 16.09344 0 0
3:15 am 03:15 Cloudy 47 8.1 37 2.5 68 68 ESE 17 28 30.03 1017 10 16.09344 0 0
3:35 am 03:35 Cloudy 46 7.8 37 2.6 70 70 ESE 12 19 30 1016 10 16.09344 0 0
3:55 am 03:55 Cloudy 46 7.8 37 2.6 70 70 ESE 9 15 30 1016 10 16.09344 0 0
4:15 am 04:15 Cloudy 46 7.7 37 2.8 71 71 E 10 17 30 1016 10 16.09344 0 0
4:35 am 04:35 Cloudy 46 7.5 37 3 73 73 E 9 15 30 1016 10 16.09344 0 0
4:55 am 04:55 Cloudy 45 7.2 37 3 75 75 ESE 9 15 30 1016 10 16.09344 0 0
5:15 am 05:15 Cloudy 45 7.1 37 3 75 75 E 13 20 30 1016 10 16.09344 0 0
5:35 am 05:35 Cloudy 45 7 37 3 76 76 E 10 17 30 1016 10 16.09344 0 0
5:55 am 05:55 Cloudy 45 7 37 3 76 76 ESE 9 15 30 1016 10 16.09344 0 0
6:15 am 06:15 Cloudy 45 7 37 3 76 76 E 10 17 30 1016 10 16.09344 0 0
6:35 am 06:35 Cloudy 45 7 37 2.9 75 75 E 12 19 30 1016 10 16.09344 0 0
6:55 am 06:55 Cloudy 44 6.8 37 3 77 77 E 10 17 30 1016 10 16.09344 0 0
7:15 am 07:15 Cloudy 44 6.7 37 3 78 78 E 12 19 30 1016 10 16.09344 0 0
7:35 am 07:35 Cloudy 44 6.6 37 3 78 78 E 9 15 30 1016 10 16.09344 0 0
7:55 am 07:55 Cloudy 44 6.5 37 3 79 79 E 9 15 30 1016 10 16.09344 0 0
8:15 am 08:15 Cloudy 44 6.7 37 3 78 78 E 10 17 30 1016 10 16.09344 0 0
8:35 am 08:35 Cloudy 44 6.6 37 3 78 78 E 12 19 30 1016 10 16.09344 0 0
8:55 am 08:55 Cloudy 44 6.5 37 3 79 79 E 12 19 30 1016 10 16.09344 0 0
9:15 am 09:15 Cloudy 44 6.6 38 3.3 80 80 E 10 17 30 1016 10 16.09344 0 0
9:35 am 09:35 Cloudy 45 7 39 3.7 80 80 ESE 13 20 30 1016 10 16.09344 0 0
9:55 am 09:55 Cloudy 44 6.8 39 3.9 82 82 E 14 22 30 1016 10 16.09344 0 0
10:15 am 10:15 Cloudy 45 7 39 4.1 82 82 E 13 20 30 1016 10 16.09344 0 0
10:35 am 10:35 Cloudy 45 7 40 4.2 83 83 ESE 13 20 30 1016 10 16.09344 0 0
10:55 am 10:55 Cloudy 45 7 39 4.1 82 82 E 14 22 30 1016 10 16.09344 0 0
11:15 am 11:15 Cloudy 45 7 40 4.3 83 83 E 14 22 30 1016 10 16.09344 0 0
11:35 am 11:35 Cloudy 46 7.8 40 4.7 81 81 E 15 24 30 1016 10 16.09344 0 0
11:55 am 11:55 Cloudy 47 8.4 41 4.9 79 79 E 12 19 30 1016 10 16.09344 0 0
12:15 pm 12:15 Cloudy 46 7.8 40 4.3 79 79 ENE 16 26 30 1016 10 16.09344 0 0
12:35 pm 12:35 Cloudy 46 7.6 39 4.1 79 79 E 18 30 29.97 1015 10 16.09344 0 0
12:55 pm 12:55 Cloudy 46 7.8 39 4 77 77 E 15 24 29.97 1015 10 16.09344 0 0
1:15 pm 13:15 Cloudy 46 7.9 39 4 77 77 ENE 17 28 29.97 1015 10 16.09344 0 0
1:35 pm 13:35 Cloudy 47 8.4 39 4.1 75 75 E 16 26 29.94 1014 10 16.09344 0 0
1:55 pm 13:55 Cloudy 47 8.5 39 4 74 74 E 18 30 29.94 1014 10 16.09344 0 0
2:15 pm 14:15 Cloudy 48 8.9 39 3.8 71 71 E 17 28 29.94 1014 10 16.09344 0 0
2:35 pm 14:35 Cloudy 49 9.5 39 4.1 69 69 E 20 31 29.91 1013 10 16.09344 0 0
2:55 pm 14:55 Cloudy 49 9.3 39 3.9 69 69 E 16 26 29.91 1013 10 16.09344 0 0
3:15 pm 15:15 Cloudy 48 9 39 3.8 70 70 E 13 20 29.88 1012 10 16.09344 0 0
3:35 pm 15:35 Cloudy 48 9.1 39 4 71 71 ENE 13 20 29.88 1012 10 16.09344 0 0
3:55 pm 15:55 Cloudy 50 9.9 40 4.3 68 68 ENE 17 28 29.88 1012 10 16.09344 0 0
4:15 pm 16:15 Cloudy 50 9.9 40 4.4 69 69 ENE 15 24 29.85 1011 10 16.09344 0 0
4:35 pm 16:35 Cloudy 49 9.5 40 4.3 70 70 ENE 14 22 29.85 1011 10 16.09344 0 0
4:55 pm 16:55 Cloudy 49 9.3 40 4.5 72 72 NE 14 22 29.85 1011 10 16.09344 0 0
5:15 pm 17:15 Cloudy 48 9.1 40 4.5 73 73 NE 15 24 29.83 1010 10 16.09344 0 0
5:35 pm 17:35 Cloudy with Rain 47 8.4 41 4.9 79 79 NE 14 22 29.88 1012 7 11.265408 0.02 0.508
5:55 pm 17:55 Cloudy with Nearby Thunderstorms 46 7.8 41 5.2 84 84 NE 13 20 29.88 1012 4 6.437376 0.08 2.032
6:15 pm 18:15 Cloudy with Rain 46 7.5 42 5.3 86 86 NE 10 17 29.88 1012 3 4.828032 0.07 1.778
6:35 pm 18:35 Cloudy with Rain 45 7.1 42 5.5 90 90 NNE 13 20 29.88 1012 3 4.828032 0.16 4.064
6:55 pm 18:55 Cloudy 45 7.1 42 5.5 90 90 NNE 14 22 29.88 1012 2.5 4.02336 0.26 6.604
7:15 pm 19:15 Cloudy with Light Rain 45 7.1 42 5.6 90 90 NNE 17 28 29.88 1012 5 8.04672 0.01 0.254
7:35 pm 19:35 Cloudy with Light Rain 45 7 42 5.5 90 90 NNE 20 31 29.85 1011 5 8.04672 0.02 0.508
7:55 pm 19:55 Cloudy with Light Rain 44 6.9 42 5.4 90 90 N 23 37 29.85 1011 5 8.04672 0.06 1.524
8:15 pm 20:15 Cloudy with Rain 44 6.6 41 5.2 91 91 NNE 22 35 29.85 1011 7 11.265408 0.03 0.762
8:35 pm 20:35 Cloudy with Light Rain 44 6.7 41 5.2 90 90 N 18 30 29.88 1012 7 11.265408 0.06 1.524
8:55 pm 20:55 Cloudy with Light Rain 44 6.6 41 5.1 90 90 N 17 28 29.88 1012 10 16.09344 0.06 1.524
9:15 pm 21:15 Cloudy 44 6.5 41 5 90 90 NNE 15 24 29.91 1013 10 16.09344 0 0
9:35 pm 21:35 Cloudy 44 6.6 41 5.1 90 90 NNE 18 30 29.91 1013 10 16.09344 0 0
9:55 pm 21:55 Cloudy 44 6.5 41 5 90 90 N 17 28 29.91 1013 10 16.09344 0 0
10:15 pm 22:15 Cloudy 44 6.5 41 5 90 90 N 18 30 29.91 1013 10 16.09344 0 0
10:35 pm 22:35 Cloudy 44 6.6 41 5 90 90 NNE 17 28 29.91 1013 10 16.09344 0 0
10:55 pm 22:55 Cloudy 44 6.5 41 4.8 89 89 N 16 26 29.94 1014 10 16.09344 0 0
11:15 pm 23:15 Cloudy 44 6.5 41 5 90 90 N 14 22 29.94 1014 7 11.265408 0 0
11:35 pm 23:35 Cloudy 43 6.3 41 5 91 91 N 13 20 29.94 1014 7 11.265408 0 0
11:55 pm 23:55 Cloudy 43 6.3 41 5 91 91 N 12 19 29.94 1014 7 11.265408 0 0

Powered by AerisWeather